Weather in Dabrowa Gornicza

Poland     50°19′23″N   19°11′20″E
temp.,
°C
wind,
m/s
gust,
m/s
humid.,
%
clouds,
%
prec.,
mm/h
press.,
hPa
HPBL,
m
26 february, fri
fri2601:00+7wsw38850 0.0 1029209
04:00+6wsw24910 0.0 102887
07:00+5sw23910 0.0 102740
10:00+10sw25700 0.0 1026253
13:00+14w485521 0.0 1025748
16:00+12nw476279 0.0 1024860
19:00+8n6108189 0.4 1026648
22:00+5nw4977100 1.4 1027865
27 february, sat
sat2701:00+5wnw4881100 1.6 1029756
04:00+3wnw498753 0.1 1028663
07:00+3wnw598570 0.1 1029792
10:00+3nw5979100 0.0 1030923
13:00+4nw5874100 0.1 1031879
16:00+4nw4874100 0.1 1031940
19:00+4nw4873100 0.1 1033922
22:00+3wnw3774100 0.1 1034508
28 february, sun
sun2801:00+3nw388393 0.1 1034436
04:00+1nw369171 0.0 1034391
07:000wnw249270 0.0 1035253
10:00+3nw24667 0.0 1034575
13:00+6nw24484 0.0 10341016
16:00+6nw24500 0.0 1033940
19:00+4nw12610 0.0 103473
22:00+3wnw23710 0.0 103475
1 march, mon
mon101:00+2wnw24789 0.0 1035147
04:00+2nw238398 0.0 1034192
07:00+2n129292 0.0 1035142
10:00+4n127794 0.0 1036445
13:00+7nne126577 0.0 1036593
16:00+7n126415 0.0 1035719
19:00+5ne127615 0.0 103629
22:00+4e12851 0.0 103727
2 march, tue
tue201:00+3e12880 0.0 103835
04:00+2ese12900 0.0 103722
07:00+2ese12900 0.0 103726
10:00+6sse23670 0.0 1037294
13:00+10s23510 0.0 1037483
16:00+10ssw13500 0.0 1035408
19:00+7s12610 0.0 103522
22:00+5ssw12720 0.0 103624